Camanche, IA

3:11 AM CDT on August 29, 2016 (GMT -0500)
Clinton Municipal

Weather History for KCWI - January, 2013

Change the Weather History Date:

Friday, January 18, 2013

  Actual Average Record
Temperature  
Mean Temperature 34 °F -  
Max Temperature 46 °F 27 °F 54 °F (1973)
Min Temperature 21 °F 11 °F -15 °F (1967)
Degree Days  
Heating Degree Days 32    
Moisture  
Dew Point 24 °F    
Average Humidity 64    
Maximum Humidity 80    
Minimum Humidity 50    
Precipitation  
Precipitation 0.00 in - - ()
Sea Level Pressure  
Sea Level Pressure 30.13 in    
Wind  
Wind Speed 11 mph (SSW)    
Max Wind Speed 25 mph    
Max Gust Speed 32 mph    
Visibility 10 miles    
Events      
Averages and records for this station are not official NWS values.
T = Trace of Precipitation, MM = Missing Value Source: NWS Daily Summary

Daily Weather History Graph

Daily Weather History Graph

Search for Another Location

Airport or City:

Trip Planner

Search our weather history database for the weather conditions in past years. The results will help you decide how hot, cold, wet, or windy it might be!

Date:

Astronomy

Jan. 18, 2013 Rise Set
Actual Time 7:24 AM CST 4:59 PM CST
Civil Twilight 6:54 AM CST 5:29 PM CST
Nautical Twilight 6:20 AM CST 6:04 PM CST
Astronomical Twilight 5:46 AM CST 6:37 PM CST
Moon 10:55 AM CST (1/18) No Moon Set
Length of Visible Light 10h 35m
Length of Day
9h 34m
Waxing Crescent, 47% of the Moon is Illuminated
Jan 18
Waxing Crescent
Jan 18
First Quarter
Jan 26
Full
Feb 3
Last Quarter
Feb 10
New

Hourly Weather History & Observations

Time (CST) Temp. Windchill Dew Point Humidity Pressure Visibility Wind Dir Wind Speed Gust Speed Precip Events Conditions
12:15 AM 21.2 °F 14.9 °F 15.8 °F 80% 30.42 in 10.0 mi SW 4.6 mph - N/A   Clear
12:35 AM 21.2 °F - 15.8 °F 80% 30.43 in 10.0 mi Calm Calm - N/A   Mostly Cloudy
12:55 AM 21.2 °F - 15.8 °F 80% 30.42 in 10.0 mi Calm Calm - N/A   Mostly Cloudy
1:15 AM 21.2 °F - 15.8 °F 80% 30.42 in 10.0 mi Calm Calm - N/A   Scattered Clouds
1:35 AM 21.2 °F - 15.8 °F 80% 30.43 in 10.0 mi Calm Calm - N/A   Scattered Clouds
1:55 AM 23.0 °F - 17.6 °F 80% 30.43 in 10.0 mi Calm Calm - N/A   Overcast
2:15 AM 23.0 °F - 17.6 °F 80% 30.42 in 10.0 mi Calm Calm - N/A   Mostly Cloudy
2:35 AM 21.2 °F 14.9 °F 15.8 °F 80% 30.41 in 10.0 mi SE 4.6 mph - N/A   Mostly Cloudy
2:55 AM 21.2 °F 13.6 °F 14.0 °F 74% 30.41 in 10.0 mi SSE 5.8 mph - N/A   Scattered Clouds
3:15 AM 21.2 °F 13.6 °F 15.8 °F 80% 30.40 in 10.0 mi SSE 5.8 mph - N/A   Clear
3:35 AM 23.0 °F 14.7 °F 17.6 °F 80% 30.38 in 10.0 mi SSE 6.9 mph - N/A   Clear
3:55 AM 23.0 °F 14.7 °F 17.6 °F 80% 30.38 in 10.0 mi South 6.9 mph - N/A   Clear
4:15 AM 24.8 °F 16.9 °F 17.6 °F 74% 30.37 in 10.0 mi South 6.9 mph - N/A   Clear
4:35 AM 24.8 °F 16.1 °F 17.6 °F 74% 30.36 in 10.0 mi South 8.1 mph - N/A   Clear
4:55 AM 24.8 °F 16.1 °F 17.6 °F 74% 30.36 in 10.0 mi South 8.1 mph - N/A   Clear
5:15 AM 24.8 °F 15.3 °F 17.6 °F 74% 30.34 in 10.0 mi SSE 9.2 mph - N/A   Clear
5:35 AM 26.6 °F 19.1 °F 17.6 °F 69% 30.34 in 10.0 mi SSE 6.9 mph - N/A   Scattered Clouds
5:55 AM 26.6 °F 16.8 °F 19.4 °F 74% 30.33 in 10.0 mi South 10.4 mph - N/A   Overcast
6:15 AM 28.4 °F 19.7 °F 19.4 °F 69% 30.32 in 10.0 mi SSE 9.2 mph - N/A   Overcast
6:35 AM 26.6 °F 16.8 °F 19.4 °F 74% 30.31 in 10.0 mi South 10.4 mph - N/A   Overcast
6:55 AM 26.6 °F 16.8 °F 19.4 °F 74% 30.29 in 10.0 mi South 10.4 mph - N/A   Scattered Clouds
7:15 AM 26.6 °F 16.2 °F 19.4 °F 74% 30.29 in 10.0 mi South 11.5 mph - N/A   Clear
7:35 AM 28.4 °F 18.0 °F 19.4 °F 69% 30.27 in 10.0 mi South 12.7 mph - N/A   Clear
7:55 AM 28.4 °F 16.2 °F 21.2 °F 74% 30.26 in 10.0 mi South 17.3 mph - N/A   Clear
8:15 AM 30.2 °F 18.5 °F 19.4 °F 64% 30.26 in 10.0 mi South 17.3 mph 23.0 mph N/A   Clear
8:35 AM 30.2 °F 17.8 °F 19.4 °F 64% 30.25 in 10.0 mi South 19.6 mph - N/A   Clear
8:55 AM 30.2 °F 18.9 °F 19.4 °F 64% 30.24 in 10.0 mi South 16.1 mph - N/A   Clear
9:15 AM 32.0 °F 21.2 °F 21.2 °F 64% 30.23 in 10.0 mi South 16.1 mph - N/A   Clear
9:35 AM 33.8 °F 22.5 °F 23.0 °F 65% 30.22 in 10.0 mi SSW 19.6 mph 26.5 mph N/A   Clear
9:55 AM 35.6 °F 24.8 °F 23.0 °F 60% 30.22 in 10.0 mi SSW 19.6 mph - N/A   Clear
10:15 AM 35.6 °F 24.5 °F 23.0 °F 60% 30.21 in 10.0 mi SSW 20.7 mph 27.6 mph N/A   Clear
10:35 AM 37.4 °F 26.9 °F 24.8 °F 60% 30.19 in 10.0 mi SSW 20.7 mph 27.6 mph N/A   Clear
10:55 AM 37.4 °F 27.5 °F 24.8 °F 60% 30.17 in 10.0 mi SSW 18.4 mph 26.5 mph N/A   Clear
11:15 AM 39.2 °F 29.8 °F 24.8 °F 56% 30.15 in 10.0 mi SSW 18.4 mph 32.2 mph N/A   Clear
11:35 AM 41.0 °F 31.1 °F 26.6 °F 57% 30.13 in 10.0 mi SSW 23.0 mph 28.8 mph N/A   Clear
11:55 AM 42.8 °F 34.0 °F 26.6 °F 53% 30.10 in 10.0 mi SSW 20.7 mph 26.5 mph N/A   Clear
12:15 PM 42.8 °F 33.5 °F 28.4 °F 57% 30.08 in 10.0 mi SSW 23.0 mph 27.6 mph N/A   Clear
12:35 PM 42.8 °F 34.0 °F 26.6 °F 53% 30.06 in 10.0 mi SSW 20.7 mph 26.5 mph N/A   Clear
12:55 PM 44.6 °F 36.9 °F 28.4 °F 53% 30.04 in 10.0 mi SSW 18.4 mph 28.8 mph N/A   Clear
1:15 PM 44.6 °F 36.9 °F 28.4 °F 53% 30.03 in 10.0 mi SSW 18.4 mph 24.2 mph N/A   Clear
1:35 PM 46.4 °F 38.5 °F 28.4 °F 50% 30.01 in 10.0 mi SSW 21.9 mph 26.5 mph N/A   Clear
1:55 PM 46.4 °F 38.7 °F 28.4 °F 50% 29.99 in 10.0 mi SSW 20.7 mph 29.9 mph N/A   Clear
2:15 PM 46.4 °F 37.9 °F 28.4 °F 50% 29.97 in 10.0 mi SSW 25.3 mph 32.2 mph N/A   Clear
2:35 PM 46.4 °F 37.9 °F 30.2 °F 53% 29.95 in 10.0 mi SSW 25.3 mph 32.2 mph N/A   Clear
2:55 PM 46.4 °F 39.0 °F 30.2 °F 53% 29.95 in 10.0 mi SSW 19.6 mph 26.5 mph N/A   Clear
3:15 PM 46.4 °F 38.3 °F 30.2 °F 53% 29.95 in 10.0 mi SW 23.0 mph 28.8 mph N/A   Clear
3:35 PM 46.4 °F 38.7 °F 30.2 °F 53% 29.95 in 10.0 mi SW 20.7 mph 29.9 mph N/A   Clear
3:55 PM 46.4 °F 39.2 °F 30.2 °F 53% 29.95 in 10.0 mi SW 18.4 mph - N/A   Clear
4:15 PM 44.6 °F 36.6 °F 30.2 °F 57% 29.93 in 10.0 mi SSW 19.6 mph - N/A   Clear
4:35 PM 44.6 °F 36.9 °F 28.4 °F 53% 29.93 in 10.0 mi SSW 18.4 mph - N/A   Clear
4:55 PM 42.8 °F 34.5 °F 30.2 °F 61% 29.94 in 10.0 mi SSW 18.4 mph 23.0 mph N/A   Clear
5:15 PM 42.8 °F 35.1 °F 28.4 °F 57% 29.94 in 10.0 mi SSW 16.1 mph 24.2 mph N/A   Clear
5:35 PM 42.8 °F 35.1 °F 28.4 °F 57% 29.94 in 10.0 mi SSW 16.1 mph 21.9 mph N/A   Clear
5:55 PM 42.8 °F 35.8 °F 28.4 °F 57% 29.94 in 10.0 mi SW 13.8 mph 20.7 mph N/A   Clear
6:15 PM 42.8 °F 34.8 °F 30.2 °F 61% 29.94 in 10.0 mi SW 17.3 mph - N/A   Clear
6:35 PM 42.8 °F 34.0 °F 30.2 °F 61% 29.93 in 10.0 mi SW 20.7 mph - N/A   Clear
6:55 PM 42.8 °F 34.8 °F 28.4 °F 57% 29.94 in 10.0 mi SW 17.3 mph 23.0 mph N/A   Clear
7:15 PM 42.8 °F 34.3 °F 28.4 °F 57% 29.94 in 10.0 mi SW 19.6 mph 25.3 mph N/A   Clear
7:35 PM 42.8 °F 33.8 °F 28.4 °F 57% 29.93 in 10.0 mi SW 21.9 mph - N/A   Clear
7:55 PM 42.8 °F 34.3 °F 28.4 °F 57% 29.94 in 10.0 mi SW 19.6 mph 25.3 mph N/A   Clear
8:15 PM 42.8 °F 34.5 °F 28.4 °F 57% 29.93 in 10.0 mi SW 18.4 mph - N/A   Clear
8:35 PM 42.8 °F 34.3 °F 28.4 °F 57% 29.92 in 10.0 mi SW 19.6 mph 24.2 mph N/A   Clear
8:55 PM 41.0 °F 32.5 °F 28.4 °F 61% 29.92 in 10.0 mi SW 17.3 mph - N/A   Clear
9:15 PM 39.2 °F 30.5 °F 28.4 °F 65% 29.92 in 10.0 mi SW 16.1 mph - N/A   Clear
9:35 PM 39.2 °F 31.2 °F 28.4 °F 65% 29.92 in 10.0 mi SW 13.8 mph - N/A   Clear
9:55 PM 39.2 °F 30.2 °F 30.2 °F 70% 29.92 in 10.0 mi SW 17.3 mph - N/A   Clear
10:15 PM 41.0 °F 32.8 °F 28.4 °F 61% 29.92 in 10.0 mi SW 16.1 mph - N/A   Clear
10:35 PM 39.2 °F 30.8 °F 28.4 °F 65% 29.91 in 10.0 mi SW 15.0 mph - N/A   Clear
10:55 PM 39.2 °F 31.6 °F 28.4 °F 65% 29.92 in 10.0 mi WSW 12.7 mph - N/A   Clear
11:15 PM 39.2 °F 31.6 °F 28.4 °F 65% 29.92 in 10.0 mi WSW 12.7 mph - N/A   Clear
11:35 PM 39.2 °F 31.2 °F 28.4 °F 65% 29.92 in 10.0 mi WSW 13.8 mph - N/A   Clear
11:55 PM 39.2 °F 31.2 °F 28.4 °F 65% 29.92 in 10.0 mi WSW 13.8 mph - N/A   Clear